This is the latest recevied weather packets stored in our database for station/object K0WOI. If no packets are shown the sender has not sent any weather packets the latest 10 day(s).
| Time | Temp. | Humidity | Pressure | Rain* | Wind** | Luminosity | Snow |
|---|---|---|---|---|---|---|---|
| 1777221897 | 17.22° C | 76% | 1012.3 hPa | 0 mm | - | 51 W/m² | - |
| 1777221597 | 17.78° C | 73% | 1012.1 hPa | 0 mm | - | 94 W/m² | - |
| 1777221295 | 18.89° C | 71% | 1012.2 hPa | 0 mm | - | 168 W/m² | - |
| 1777220991 | 18.33° C | 71% | 1012.2 hPa | 0 mm | - | 346 W/m² | - |
| 1777220686 | 18.33° C | 74% | 1012.2 hPa | 0 mm | - | 587 W/m² | - |
| 1777220383 | 18.89° C | 70% | 1012.1 hPa | 0 mm | - | 366 W/m² | - |
| 1777220083 | 18.89° C | 74% | 1012.1 hPa | 0 mm | - | 561 W/m² | - |
| 1777219780 | 18.89° C | 73% | 1012 hPa | 0 mm | - | 488 W/m² | - |
| 1777219478 | 18.33° C | 76% | 1012.1 hPa | 0 mm | - | 379 W/m² | - |
| 1777219173 | 18.33° C | 77% | 1012.1 hPa | 0 mm | - | 353 W/m² | - |
| 1777218869 | 17.78° C | 76% | 1012.1 hPa | 0 mm | - | 444 W/m² | - |
| 1777218566 | 17.78° C | 79% | 1012.2 hPa | 0 mm | - | 409 W/m² | - |
| 1777218260 | 17.78° C | 77% | 1012.3 hPa | 0 mm | - | 295 W/m² | - |
| 1777217958 | 17.78° C | 81% | 1012.3 hPa | 0 mm | - | 540 W/m² | - |
| 1777217658 | 17.22° C | 82% | 1012.3 hPa | 0 mm | - | 763 W/m² | - |
| 1777217355 | 17.22° C | 84% | 1012.1 hPa | 0 mm | - | 302 W/m² | - |
| 1777217050 | 16.67° C | 83% | 1012.2 hPa | 0 mm | - | 801 W/m² | - |
| 1777216748 | 16.11° C | 86% | 1012.2 hPa | 0 mm | - | 727 W/m² | - |
| 1777216443 | 15.56° C | 88% | 1012.3 hPa | 0 mm | - | 496 W/m² | - |
| 1777216142 | 15.56° C | 91% | 1012.5 hPa | 0 mm | - | 709 W/m² | - |
| 1777215837 | 15° C | 94% | 1012.5 hPa | 0 mm | - | 692 W/m² | - |
| 1777215533 | 15° C | 93% | 1012.6 hPa | 0 mm | - | 327 W/m² | - |
| 1777215230 | 14.44° C | 95% | 1012.6 hPa | 0 mm | - | 416 W/m² | - |
| 1777214925 | 13.89° C | 96% | 1012.7 hPa | 0 mm | - | 652 W/m² | - |
| 1777214625 | 13.89° C | 98% | 1012.6 hPa | 0 mm | - | 552 W/m² | - |
* Rain latest hour (hover to see other rain measurements)
** Current wind speed in m/s (hover to see current wind gust speed)